Date String (YYYY-MM-DD hh:mm:ss) UTC,Instrument flags,Ambient pressure (hPa),Sample flow (lpm),Bypass flow (lpm),Sample temperature (°C),Ambient temperature (°C),ASC tube jacket temperature (°C),LED temperature (°C),Box temperature (°C),Sample RH (%),Span deviation,Mass concentration (μg/m³),Mass concentration (μg/m³),Mass concentration (μg/m³)
DateTimeUTC,F1_M11,P_M11,Q1_M11,Q2_M11,T1_M11,T2_M11,T3_M11,T4_M11,T5_M11,U1_M11,ZSPAN_M11,X0_M11,X2_M11,X1_M11
2022-12-21 05:00:00,,0823.7,4.96,0.00,22.2,20.8,00.0,31.1,24.0,10.0,0002.5,0035.57,0015.99,0013.29
2022-12-21 05:01:00,,0823.8,5.03,0.00,22.2,20.8,00.0,31.1,24.0,10.0,0002.6,0034.99,0016.08,0013.47
2022-12-21 05:02:00,,0823.8,4.99,0.00,22.2,20.8,00.0,31.1,24.0,10.1,0001.8,0035.65,0016.20,0013.68
2022-12-21 05:03:00,,0823.9,4.97,0.00,22.2,21.2,00.0,31.1,24.1,10.1,0001.2,0035.34,0016.31,0013.87
2022-12-21 05:04:00,,0824.1,5.05,0.00,22.3,22.0,00.0,31.0,24.3,09.9,0001.0,0035.49,0016.37,0014.00
2022-12-21 05:05:00,,0824.0,4.97,0.00,22.4,22.3,00.0,31.1,24.4,10.0,0000.4,0034.96,0016.45,0014.10
2022-12-21 05:06:00,,0824.0,5.02,0.00,22.4,22.0,00.0,31.1,24.4,10.0,0000.7,0034.02,0016.54,0014.16
2022-12-21 05:07:00,,0823.9,5.00,0.00,22.4,21.8,00.0,31.2,24.3,10.0,0000.6,0033.75,0016.57,0014.19
2022-12-21 05:08:00,,0823.8,5.01,0.00,22.4,21.6,00.0,31.2,24.3,10.2,0000.2,0032.22,0016.51,0014.25
2022-12-21 05:09:00,,0823.7,4.98,0.00,22.4,21.3,00.0,31.2,24.2,10.3,0000.8,0030.68,0016.44,0014.28
2022-12-21 05:10:00,,0823.9,5.04,0.00,22.4,21.1,00.0,31.2,24.2,10.4,0000.6,0030.37,0016.34,0014.27
2022-12-21 05:11:00,,0824.0,4.98,0.00,22.3,20.9,00.0,31.2,24.1,10.4,0000.8,0030.14,0016.16,0014.20
2022-12-21 05:12:00,,0824.0,5.00,0.00,22.3,20.8,00.0,31.2,24.1,10.3,0000.6,0029.29,0015.79,0013.88
2022-12-21 05:13:00,,0824.0,5.03,0.00,22.3,20.7,00.0,31.2,24.0,10.3,0000.8,0029.53,0015.62,0013.74
2022-12-21 05:14:00,,0823.9,4.97,0.00,22.3,20.7,00.0,31.2,24.0,10.3,0001.2,0029.61,0015.59,0013.71
2022-12-21 05:15:00,,0823.9,5.00,0.00,22.2,20.7,00.0,31.2,24.0,10.4,0001.4,0028.08,0015.59,0013.73
2022-12-21 05:16:00,,0823.9,5.02,0.00,22.2,20.7,00.0,31.2,24.0,10.4,0001.9,0027.91,0015.61,0013.75
2022-12-21 05:17:00,,0823.9,4.97,0.00,22.2,20.7,00.0,31.2,24.0,10.4,0001.8,0027.66,0015.59,0013.77
2022-12-21 05:18:00,,0823.9,5.00,0.00,22.2,20.7,00.0,31.1,24.0,10.4,0001.9,0029.10,0015.61,0013.75
2022-12-21 05:19:00,,0824.0,5.02,0.00,22.2,20.6,00.0,31.1,23.9,10.3,0002.1,0030.12,0015.51,0013.59
2022-12-21 05:20:00,,0823.9,5.00,0.00,22.1,20.2,00.0,31.1,23.8,10.3,0001.6,0030.80,0015.43,0013.46
2022-12-21 05:21:00,,0824.0,4.97,0.00,22.0,20.0,00.0,31.1,23.6,10.2,0001.9,0031.22,0015.35,0013.31
2022-12-21 05:22:00,,0824.0,5.05,0.00,22.1,20.8,00.0,31.0,23.8,10.1,0001.9,0033.66,0015.30,0013.16
2022-12-21 05:23:00,,0824.0,4.99,0.00,22.2,21.8,00.0,31.0,24.0,10.0,0002.2,0034.03,0015.43,0013.22
2022-12-21 05:24:00,,0824.0,5.01,0.00,22.2,21.8,00.0,31.0,24.1,09.9,0002.6,0033.41,0015.38,0013.13
2022-12-21 05:25:00,,0823.9,4.96,0.00,22.2,21.5,00.0,31.1,24.0,09.9,0003.0,0034.03,0015.19,0012.96
2022-12-21 05:26:00,,0824.0,5.03,0.00,22.2,21.3,00.0,31.1,24.0,09.9,0003.0,0035.13,0015.07,0012.77
2022-12-21 05:27:00,,0824.0,4.99,0.00,22.2,21.1,00.0,31.1,24.0,09.9,0002.6,0035.79,0014.85,0012.56
2022-12-21 05:28:00,,0823.8,4.99,0.00,22.2,20.9,00.0,31.1,23.9,09.9,0002.1,0036.43,0014.68,0012.33
2022-12-21 05:29:00,,0823.7,5.03,0.00,22.1,20.7,00.0,31.1,23.8,09.9,0002.0,0035.23,0014.39,0012.05
2022-12-21 05:30:00,,0823.7,4.97,0.00,22.1,20.4,00.0,31.1,23.7,10.0,0001.7,0035.17,0014.26,0011.88
2022-12-21 05:31:00,,0823.7,4.99,0.00,22.0,20.2,00.0,31.0,23.6,10.1,0002.6,0034.65,0014.09,0011.70
2022-12-21 05:32:00,,0823.6,5.03,0.00,21.9,19.9,00.0,31.0,23.5,10.2,0002.6,0034.01,0013.90,0011.55
2022-12-21 05:33:00,,0823.7,5.01,0.00,21.9,19.7,00.0,31.0,23.4,10.2,0002.7,0033.11,0013.73,0011.47
2022-12-21 05:34:00,,0823.7,4.96,0.00,21.8,19.5,00.0,30.9,23.3,10.2,0002.3,0033.06,0013.60,0011.37
2022-12-21 05:35:00,,0823.7,5.01,0.00,21.7,19.6,00.0,30.9,23.3,10.2,0002.4,0032.90,0013.54,0011.31
2022-12-21 05:36:00,,0823.7,5.02,0.00,21.7,19.8,00.0,30.8,23.3,10.2,0002.4,0031.90,0013.47,0011.21
2022-12-21 05:37:00,,0823.7,4.96,0.00,21.8,20.8,00.0,30.8,23.5,10.2,0002.1,0030.43,0013.38,0011.13
2022-12-21 05:38:00,,0823.7,5.04,0.00,21.9,21.7,00.0,30.7,23.8,10.1,0002.6,0029.55,0013.38,0011.08
2022-12-21 05:39:00,,0823.7,4.97,0.00,22.0,21.7,00.0,30.8,23.9,10.1,0003.4,0029.55,0013.27,0011.02
2022-12-21 05:40:00,,0823.7,5.04,0.00,22.0,21.4,00.0,30.8,23.8,10.0,0003.4,0029.28,0013.36,0011.07
2022-12-21 05:41:00,,0823.7,4.96,0.00,21.9,21.2,00.0,30.8,23.7,10.0,0003.8,0029.23,0013.48,0011.19
2022-12-21 05:42:00,,0823.8,5.03,0.00,21.9,20.9,00.0,30.8,23.7,10.1,0003.1,0029.64,0013.66,0011.36
2022-12-21 05:43:00,,0823.8,4.95,0.00,21.9,20.7,00.0,30.8,23.6,10.2,0002.6,0030.42,0013.97,0011.66
2022-12-21 05:44:00,,0823.8,5.02,0.00,21.9,20.6,00.0,30.8,23.6,10.2,0002.4,0029.51,0014.22,0011.89
2022-12-21 05:45:00,,0823.8,5.03,0.00,21.9,20.6,00.0,30.8,23.6,10.3,0002.7,0030.45,0014.51,0012.17
2022-12-21 05:46:00,,0823.7,4.95,0.00,21.9,20.5,00.0,30.8,23.6,10.2,0002.9,0029.77,0014.66,0012.33
2022-12-21 05:47:00,,0823.7,5.03,0.00,21.9,20.4,00.0,30.8,23.6,10.2,0003.1,0029.21,0014.74,0012.43
2022-12-21 05:48:00,,0823.6,5.02,0.00,21.9,20.4,00.0,30.8,23.6,10.2,0003.3,0030.26,0014.73,0012.45
2022-12-21 05:49:00,,0823.7,4.97,0.00,21.8,20.3,00.0,30.8,23.5,10.2,0002.9,0030.54,0014.75,0012.50
2022-12-21 05:50:00,,0823.7,5.04,0.00,21.8,20.3,00.0,30.8,23.5,10.3,0002.8,0030.31,0014.95,0012.70
2022-12-21 05:51:00,,0823.6,4.97,0.00,21.9,21.2,00.0,30.8,23.7,10.3,0003.1,0030.85,0015.29,0013.05
2022-12-21 05:52:00,,0823.6,5.04,0.00,22.0,22.0,00.0,30.8,23.9,10.2,0003.0,0030.66,0015.56,0013.33
2022-12-21 05:53:00,,0823.6,4.97,0.00,22.0,21.9,00.0,30.8,24.0,10.2,0003.1,0030.90,0015.81,0013.57
2022-12-21 05:54:00,,0823.6,5.04,0.00,22.1,21.6,00.0,30.8,23.9,10.2,0003.3,0030.81,0015.91,0013.70
2022-12-21 05:55:00,,0823.4,4.96,0.00,22.1,21.4,00.0,30.9,23.9,10.1,0003.2,0031.27,0015.99,0013.79
2022-12-21 05:56:00,,0823.5,5.03,0.00,22.1,21.1,00.0,30.9,23.8,10.2,0003.2,0030.91,0016.06,0013.80
2022-12-21 05:57:00,,0823.4,4.95,0.00,22.0,20.8,00.0,30.9,23.8,10.2,0003.5,0031.82,0016.09,0013.86
2022-12-21 05:58:00,,0823.3,5.03,0.00,22.0,20.5,00.0,30.9,23.7,10.3,0003.4,0033.89,0016.29,0014.07
2022-12-21 05:59:00,,0823.4,5.02,0.00,22.0,20.3,00.0,30.9,23.7,10.2,0003.3,0033.24,0016.01,0013.85
